#timestamp,LO_Frequency,Hit,StdDev 
1529564415.3,286047016.1,N
1529564435.1,286047013.9,N
1529564455.9,286047006.6,N
1529564475.7,286047012.4,N
1529564495.5,286047011.6,N
1529564515.4,286047012.4,N
1529564535.2,286047010.3,N
1529564555.0,286047005.0,N
1529564555.9,286047005.0,N
1529564575.8,286047004.9,N
1529564595.6,286047006.3,N
1529564615.4,286047007.0,N
1529564635.3,286047006.0,N
1529564655.1,286047001.3,N
1529564675.9,286047002.1,N
1529564695.7,286046999.9,N
1529564715.5,286046996.6,N
1529564735.4,286047011.9,N
1529564755.2,286047001.7,N
1529564775.0,286047001.9,N
1529564775.9,286047001.9,N
1529564795.8,286047002.3,N
1529564815.6,286047004.2,N
1529564835.5,286047002.2,N
1529564855.3,286046997.7,N
1529564875.1,286046995.4,N
1529564895.9,286047001.2,N
1529564915.7,286047001.0,N
1529564935.5,286047000.2,N
1529564955.4,286046997.5,N
1529564975.2,286046993.3,N
1529564995.1,286046994.5,N
1529564996.0,286046994.5,N
1529565015.8,286046992.5,N
1529565035.6,286046992.5,N
1529565055.5,286046989.1,N
1529565075.3,286046989.6,N
1529565095.1,286046988.7,N
1529565115.9,286046989.1,N
1529565135.7,286046987.3,N
1529565155.5,286046985.6,N
1529565175.4,286046983.8,N
1529565195.2,286046982.4,N
1529565215.1,286046983.1,N
1529565216.0,286046983.1,N
1529565235.8,286046981.7,N
1529565255.6,286046980.3,N
1529565275.5,286046978.7,N
1529565295.3,286046976.2,Y
1529565315.1,286046983.9,P
1529565335.9,286046987.7,N
1529565355.7,286046988.4,P
1529565375.6,286046985.8,Y
1529565395.4,286046995.1,P
1529565415.2,286046997.5,N
1529565435.1,286047002.4,N
1529565436.0,286047002.4,N
1529565455.8,286046998.8,N
1529565475.7,286046998.9,N
1529565495.5,286046997.7,N
1529565515.3,286047000.3,N
1529565535.2,286047002.1,N
1529565555.0,286047000.5,N
1529565555.9,286047000.5,N
1529565575.7,286047004.0,N
1529565595.6,286047001.4,N
1529565615.4,286046999.9,N
1529565635.3,286047000.2,N
1529565655.1,286047000.3,N
1529565656.0,286047000.3,N
1529565675.8,286046998.8,N
1529565695.7,286046995.4,N
1529565715.5,286046993.7,N
1529565735.4,286046993.7,N
1529565755.2,286046986.3,Y
1529565775.0,286046995.0,P
1529565775.9,286046995.0,N
1529565795.8,286046994.1,P
1529565815.6,286046993.9,Y
1529565835.5,286046999.4,P
1529565855.3,286046995.9,N
1529565875.1,286046996.3,N
1529565895.9,286046995.7,N
1529565915.7,286046997.5,N
1529565935.5,286046999.5,N
1529565955.4,286046999.5,N
1529565975.2,286046995.4,N
1529565995.1,286046993.6,Y
1529565996.0,286046993.6,P
1529566015.8,286047000.4,N
1529566035.6,286047000.1,N
1529566055.5,286046997.3,N
1529566075.3,286046996.9,N
1529566095.1,286046997.8,N
1529566115.9,286046993.6,Y
1529566135.7,286046997.9,P
1529566155.6,286046995.6,P
1529566175.4,286046995.8,P
1529566195.2,286046993.6,Y
1529566215.1,286046997.5,P
1529566216.0,286046997.5,P
1529566235.8,286046996.8,P
1529566255.7,286046998.7,Y
1529566275.5,286046998.3,P
1529566295.3,286046996.8,P
1529566315.2,286046997.8,P
1529566335.0,286046996.7,Y
1529566335.9,286046996.7,P
1529566355.8,286046998.6,P
1529566375.6,286047000.0,N
1529566395.4,286047001.8,N
1529566415.3,286046999.1,N
1529566435.1,286046999.3,N
1529566455.8,286047000.6,N
1529566475.7,286047000.6,N
1529566495.5,286047001.0,N
1529566515.4,286046998.5,N
1529566535.2,286047000.4,N
1529566555.0,286047000.1,N
1529566555.9,286047000.1,N
1529566575.8,286046998.2,N
1529566595.6,286047000.7,N
1529566615.5,286046999.8,N
1529566635.3,286046999.7,N
1529566655.1,286047004.0,Y
1529566675.9,286047007.1,P
1529566695.7,286047003.9,N
1529566715.5,286047000.0,N
1529566735.4,286047000.4,N
1529566755.2,286047005.9,N
1529566775.1,286047003.0,N
1529566776.0,286047003.0,N
1529566795.8,286047003.6,N
1529566815.6,286047007.3,N
1529566835.5,286047015.5,Y
1529566855.3,286047028.2,P
1529566875.1,286047028.5,N
1529566895.9,286047035.8,P
1529566915.7,286047058.5,Y
1529566935.6,286047030.5,P
1529566955.4,286047024.2,P
1529566975.2,286047024.9,P
1529566995.1,286047024.5,Y
1529566996.0,286047024.5,P
1529567015.8,286046996.3,P
1529567035.7,286046989.1,N
1529567055.5,286046985.4,N
1529567075.3,286046987.2,N
1529567095.2,286046996.1,N
1529567115.0,286046997.2,N
1529567115.9,286046997.2,N
1529567135.7,286046993.0,N
1529567155.6,286046986.8,N
1529567175.4,286046980.9,N
1529567195.3,286046980.3,N
1529567215.1,286046983.9,N
1529567216.0,286046983.9,N
1529567235.8,286047017.0,N
1529567255.7,286047021.7,N
1529567275.5,286047024.6,N
1529567295.4,286047018.2,N
1529567315.2,286047022.7,N
1529567335.0,286047018.6,N
1529567335.9,286047018.6,N
1529567355.8,286047016.0,N
1529567375.6,286047017.3,N
1529567395.4,286047023.3,N
1529567415.3,286047018.6,N
1529567435.1,286047014.2,N
1529567455.9,286047011.7,N
1529567475.7,286047002.9,N
1529567495.5,286047001.2,N
1529567515.4,286046995.5,N
1529567535.2,286046992.3,N
1529567555.0,286046987.6,N
1529567555.9,286046987.6,N
1529567575.8,286046980.5,N
1529567595.6,286046981.3,N
1529567615.4,286046983.1,N
1529567635.3,286046976.6,N
1529567655.1,286046972.3,N
1529567675.9,286046971.6,N
1529567695.7,286046968.9,N
1529567715.5,286046967.6,N
1529567735.4,286046965.9,N
1529567755.2,286046963.5,N
1529567775.0,286046966.4,N
1529567775.9,286046966.4,N
1529567795.8,286046965.8,N
1529567815.6,286046965.2,N
1529567835.5,286046961.6,N
1529567855.3,286046966.5,N
1529567875.1,286046968.3,N
1529567895.9,286046963.9,N
1529567915.7,286046961.2,N
1529567935.5,286046965.1,N
1529567955.4,286046963.2,N
1529567975.2,286046954.9,N
1529567995.1,286046957.6,N
1529567996.0,286046957.6,N
